Weather in Sukhonoy

Russia / Krasnoyarsk Krai     55°36′37″N   94°10′08″E
temp.,
°C
wind,
m/s
gust,
m/s
humid.,
%
clouds,
%
prec.,
mm/h
press.,
hPa
HPBL,
m
13 june, sun
sun1301:00+8w1170100 0.0 101310
04:00+7wsw1170100 0.0 101310
07:00+11wsw227098 0.0 1013143
10:00+15wnw3356100 0.0 1012769
13:00+18nw254471 0.0 10112279
16:00+19wnw4651100 0.0 10092321
19:00+14nw51073100 0.1 1010430
22:00+10wsw61392100 1.4 1012644
14 june, mon
mon1401:00+9wsw61293100 3.3 1011666
04:00+10w4896100 0.6 1011501
07:00+10nw699320 2.8 1013681
10:00+12nnw67655 0.3 10151346
13:00+14nw565182 0.3 10162060
16:00+14nw365189 0.0 10161987
19:00+14nw25655 0.0 1016505
22:00+8wsw22712 0.0 101810
15 june, tue
tue1501:00+7sw227139 0.0 101819
04:00+6sw347759 0.0 101776
07:00+10wsw3975100 0.0 1017242
10:00+14w576593 0.4 10161088
13:00+15wnw4769100 1.0 1016837
16:00+15wnw367099 0.6 1015938
19:00+14nw357820 2.3 1016218
22:00+10wsw228798 0.3 101711
16 june, wed
wed1601:00+8wsw229164 0.3 101713
04:00+7ssw219338 0.0 101810
07:00+12ssw11865 0.0 1018137
10:00+17sse22662 0.0 1017684
13:00+19ese225496 0.0 10161356
16:00+20ese32565 0.0 1015890
19:00+19se23725 0.0 1015205
22:00+13s228374 0.0 101511
17 june, thu
thu1701:00+12ssw228780 0.0 101512
04:00+11sw22905 0.0 101425
07:00+15sw377875 0.0 1014211
10:00+20sw576227 0.0 1012852
13:00+23w3662100 0.0 10101621
16:00+25w375366 0.0 10082383
19:00+22wnw3773100 0.0 1008240
22:00+16w2281100 0.1 100923